Location: Red Bud (historical)
(37.7759°N, 88.4053°W)
Time: 21:58:52
(UTC+00:00)

Tiangong - Pass Details

Date: 24 June 2021
Orbit: 374 x 385 km, 41.5° (Epoch: 24 July)

Event Time Altitude Azimuth Distance (km) Brightness Sun altitude
Exits shadow 09:36:38 - 283° (WNW) 1,852 4.2 -9.9°
Reaches altitude 10° 09:37:49 10° 289° (WNW) 1,388 3.6 -9.7°
Maximum altitude 09:40:47 39° 0° (N) 584 2.4 -9.2°
Drops below altitude 10° 09:43:46 10° 72° (ENE) 1,396 5.2 -8.8°
Sets 09:45:56 0° 80° (E) 2,252 6.2 -8.5°
